Change the Weather History Date:

Thursday, February 6, 2014

  Actual Average Record
Temperature  
Mean Temperature 78 °F 70 °F  
Max Temperature 81 °F 75 °F 85 °F (1939)
Min Temperature 74 °F 65 °F 49 °F (1966)
Degree Days  
Heating Degree Days 0 1  
Month to date heating degree days 0 6  
Since 1 July heating degree days 22 57  
Cooling Degree Days 13 6  
Month to date cooling degree days 76 36  
Year to date cooling degree days 233 201  
Growing Degree Days 28 (Base 50)    
Moisture  
Dew Point 71 °F    
Average Humidity 81    
Maximum Humidity 87    
Minimum Humidity 74    
Precipitation  
Precipitation 0.00 in 0.05 in 1.82 in (1912)
Month to date precipitation T 0.33  
Year to date precipitation 6.68 2.37  
Snow  
Snow 0.00 in - - ()
Month to date snowfall 0.0  
Since 1 July snowfall 0.0  
Snow Depth 0.00 in    
Sea Level Pressure  
Sea Level Pressure 30.06 in    
Wind  
Wind Speed 8 mph (ESE)    
Max Wind Speed 13 mph    
Max Gust Speed 18 mph    
Visibility 10 miles    
Events      
T = Trace of Precipitation, MM = Missing Value Source: NWS Daily Summary

Daily Weather History Graph

Daily Weather History Graph

Search for Another Location

Airport or City:

Trip Planner

Search our weather history database for the weather conditions in past years. The results will help you decide how hot, cold, wet, or windy it might be!

Date:

Astronomy

Feb. 06, 2014 Rise Set
Actual Time 7:06 AM EST 6:16 PM EST
Civil Twilight 6:42 AM EST 6:39 PM EST
Nautical Twilight 6:15 AM EST 7:06 PM EST
Astronomical Twilight 5:48 AM EST 7:33 PM EST
Moon 11:48 AM EST (2/6) 12:21 AM EST (2/6)
Length of Visible Light 11h 56m
Length of Day
11h 09m
Waxing Crescent, 49% of the Moon is Illuminated
Feb 6
Waxing Crescent
Feb 6
First Quarter
Feb 14
Full
Feb 22
Last Quarter
Mar 1
New

Hourly Weather History & Observations

Time (EST) Temp. Heat Index Dew Point Humidity Pressure Visibility Wind Dir Wind Speed Gust Speed Precip Events Conditions
12:53 AM 75.9 °F - 72.0 °F 87% 30.06 in 10.0 mi SE 5.8 mph - N/A   Partly Cloudy
1:53 AM 75.9 °F - 71.1 °F 85% 30.05 in 10.0 mi ESE 6.9 mph - N/A   Clear
2:53 AM 75.9 °F - 72.0 °F 87% 30.04 in 10.0 mi SE 4.6 mph - N/A   Partly Cloudy
3:53 AM 75.0 °F - 71.1 °F 87% 30.04 in 10.0 mi SE 4.6 mph - N/A   Clear
4:53 AM 75.0 °F - 71.1 °F 87% 30.04 in 10.0 mi ESE 5.8 mph - N/A   Clear
5:53 AM 75.0 °F - 71.1 °F 87% 30.05 in 10.0 mi ESE 5.8 mph - N/A   Clear
6:53 AM 75.0 °F - 71.1 °F 87% 30.07 in 10.0 mi East 3.5 mph - N/A   Clear
7:53 AM 75.0 °F - 72.0 °F 90% 30.08 in 10.0 mi East 3.5 mph - N/A   Clear
8:53 AM 78.1 °F - 72.0 °F 81% 30.09 in 10.0 mi ESE 6.9 mph - N/A   Clear
9:53 AM 79.0 °F - 71.1 °F 77% 30.11 in 10.0 mi ESE 9.2 mph - N/A   Clear
10:53 AM 80.1 °F 83.8 °F 72.0 °F 76% 30.11 in 10.0 mi ESE 9.2 mph - N/A   Clear
11:53 AM 80.1 °F 83.8 °F 72.0 °F 76% 30.10 in 10.0 mi SE 8.1 mph - N/A   Partly Cloudy
12:53 PM 80.1 °F 83.8 °F 72.0 °F 76% 30.07 in 10.0 mi SSE 11.5 mph - N/A   Clear
1:53 PM 80.1 °F 83.6 °F 71.1 °F 74% 30.05 in 10.0 mi SE 11.5 mph - N/A   Clear
2:53 PM 80.1 °F 83.6 °F 71.1 °F 74% 30.03 in 10.0 mi SE 10.4 mph - N/A   Clear
3:53 PM 80.1 °F 83.6 °F 71.1 °F 74% 30.03 in 10.0 mi SE 9.2 mph - N/A   Clear
4:53 PM 79.0 °F - 70.0 °F 74% 30.04 in 10.0 mi SE 8.1 mph - N/A   Clear
5:53 PM 78.1 °F - 69.1 °F 74% 30.04 in 10.0 mi ESE 6.9 mph - N/A   Clear
6:53 PM 77.0 °F - 70.0 °F 79% 30.05 in 10.0 mi ESE 10.4 mph - N/A   Clear
7:53 PM 75.9 °F - 69.1 °F 79% 30.06 in 10.0 mi ESE 6.9 mph - N/A   Partly Cloudy
8:53 PM 75.0 °F - 69.1 °F 82% 30.08 in 10.0 mi ESE 6.9 mph - N/A   Clear
9:53 PM 75.0 °F - 68.0 °F 79% 30.09 in 10.0 mi East 9.2 mph - N/A   Clear
10:53 PM 75.0 °F - 66.0 °F 73% 30.09 in 10.0 mi ESE 10.4 mph - N/A   Clear
11:53 PM 75.0 °F - 66.0 °F 73% 30.08 in 10.0 mi SE 10.4 mph - N/A   Clear